Location: Casteau
(50.5142°N, 4.0161°E)
Time: 05:57:16
(UTC+00:00)

Cosmos 1092 Rocket - Pass Details

Date: 18 September 2020
Orbit: 954 x 995 km, 82.9° (Epoch: 27 October)

Event Time Altitude Azimuth Distance (km) Brightness Sun altitude
Rises 19:47:53 0° 350° (N) 3,646 7.5 -18.8°
Reaches altitude 10° 19:50:23 10° 352° (N) 2,698 6.8 -19.2°
Maximum altitude 19:56:34 78° 79° (E) 987 3.9 -20.0°
Enters shadow 20:00:16 26° 163° (SSE) 1,800 5.0 -20.5°
